Location: Newark
(7.0858°N, 171.3717°E)
Time: 06:01:17
(UTC+00:00)

Courier 1B Rocket - Pass Details

Date: 03 December 2020
Orbit: 920 x 1202 km, 28.2° (Epoch: 20 January)

Event Time Altitude Azimuth Distance (km) Brightness Sun altitude
Rises 15:51:17 0° 280° (W) 3,946 - -38.0°
Reaches altitude 10° 15:54:44 10° 294° (WNW) 3,030 - -37.3°
Maximum altitude 16:00:24 23° 343° (NNW) 2,281 - -36.0°
Exits shadow 16:04:34 15° 22° (NNE) 2,747 7.3 -35.0°
Drops below altitude 10° 16:06:14 10° 32° (NNE) 3,118 7.7 -34.6°
Sets 16:09:52 0° 47° (NE) 4,090 8.5 -33.8°
